[[{"header":{"parameterUnit":"m.s-1","parameterCategory":1,"la1":30.2991,"la2":30.254,"lo1":-89.0895,"lo2":-89.0444,"dy":0.0017,"dx":0.0017,"nx":28,"ny":28,"refTime":"2025-07-20T21:00:00:Z","depth":0,"parameterNumber":2,"parameterNumberName":"U-component_of_WINDS"},"data":[0,0,0,0,0,0,0,0,0,0,0,0,0,0,0,0,0,0,0,0,0,0,0,0,0,0,0,0,0,0,0,0,0,0,0,0,0,0,0,0,0,0,0,0,0,0,0,0,0,0,0,0,0,0,0,0,0,0,2.4674,2.4675,0,2.4819,2.4821,2.4822,2.4843,2.4841,2.484,2.4839,2.4992,2.4997,2.5002,0,0,0,0,0,0,0,0,0,0,0,0,0,2.4418,2.4423,2.4674,2.4676,2.4677,2.4819,2.4821,2.4823,2.4843,2.4841,2.484,2.4838,2.499,2.4996,2.5003,0,0,0,0,0,0,0,0,0,0,0,0,0,2.4543,2.4424,2.4673,2.4704,2.4709,2.4818,2.4821,2.4823,2.4843,2.4841,2.4839,2.4837,2.4988,2.4996,2.5004,2.5094,0,0,2.5028,2.5032,0,0,0,0,0,0,0,0,2.4536,2.4552,2.4698,2.4702,2.4707,2.4811,2.4787,2.4914,2.4844,2.4792,2.4839,2.4836,2.4934,2.4946,2.4978,2.5102,2.5108,2.5029,2.5034,2.5037,2.504,0,0,0,0,0,0,0,2.4527,2.4546,2.4731,2.47,2.4706,2.4712,2.4728,2.4811,2.4873,2.4797,2.4798,2.4815,2.4936,2.497,2.4982,2.511,2.5029,2.5036,2.5041,2.5044,2.5316,2.5318,0,0,0,0,0,0,2.4512,2.4539,2.4727,2.4736,2.4615,2.4719,2.4736,2.478,2.4872,2.4884,2.4817,2.4815,2.4957,2.4972,2.4987,2.5098,2.5037,2.5045,2.5049,2.5314,2.5316,2.5319,0,0,0,0,0,0,2.4507,2.4529,2.4721,2.4638,2.4663,2.4725,2.4774,2.4784,2.4818,2.4887,2.4898,2.484,2.4956,2.4976,2.5067,2.5104,2.5048,2.5056,2.5311,2.5314,2.5318,2.5322,0,0,0,0,0,0,2.4499,2.4527,2.4561,2.4638,2.4667,2.4797,2.4776,2.4788,2.4831,2.4831,2.4912,2.4923,2.4956,2.5055,2.5075,2.5114,2.5062,2.5308,2.5312,2.5317,2.5319,2.5325,2.5331,0,0,0,0,0,2.449,2.4557,2.4562,2.4585,2.4711,2.4799,2.4816,2.4851,2.4834,2.4869,2.4914,2.4921,2.5097,2.5064,2.5087,2.5129,2.5305,2.5311,2.5316,2.5316,2.5324,2.5331,0,0,0,0,0,0,2.4483,2.4568,2.4574,2.4668,2.4726,2.4802,2.4848,2.4858,2.4923,2.492,2.4963,2.4981,2.507,2.5109,2.5071,2.5222,2.52,2.521,2.5192,2.52,2.5206,2.5194,2.5069,0,0,0,0,0,2.4492,2.4556,2.4627,2.4703,2.4732,2.4785,2.4825,2.4847,2.4909,2.4934,2.4985,2.5047,2.5116,2.5161,2.5228,2.5326,2.5343,2.5366,2.5372,2.5376,2.5384,2.5438,2.5448,2.5337,2.5337,2.5337,0,0,2.4512,2.4566,2.4604,2.4703,2.475,2.4816,2.4805,2.4876,2.4925,2.4945,2.5034,2.5074,2.5146,2.524,2.5284,2.5275,2.5419,2.5383,2.5386,2.5392,2.5445,2.5455,2.5464,2.5341,2.534,2.5339,0,0,2.4582,2.4629,2.4697,2.4745,2.4817,2.4852,2.4868,2.4943,2.497,2.5059,2.5075,2.5136,2.5255,2.5305,2.5346,2.5435,2.5444,2.5457,2.5487,2.5539,2.5548,2.5556,2.5587,2.5597,2.5465,2.5465,2.5465,0,2.4597,2.4696,2.4731,2.4801,2.4844,2.4864,2.4934,2.4979,2.507,2.51,2.5089,2.5237,2.5287,2.5393,2.5415,2.5448,2.5468,2.5446,2.5544,2.5552,2.556,2.559,2.5601,2.5465,2.5465,2.5465,2.5465,0,2.4711,2.478,2.4827,2.4911,2.496,2.503,2.5077,2.5123,2.5141,2.5177,2.5269,2.5329,2.5409,2.5437,2.5456,2.5546,2.5538,2.5535,2.5514,2.5571,2.56,2.5611,2.5467,2.5466,2.5466,2.5466,0,0,2.4778,2.4883,2.4899,2.4938,2.5019,2.5073,2.5144,2.5221,2.5259,2.5322,2.5382,2.5482,2.548,2.5526,2.5552,2.5598,2.5664,2.5589,2.5592,2.56,2.5766,2.5766,2.5778,2.5671,2.5673,2.5675,2.5759,0,2.4856,2.4981,2.5015,2.5121,2.5185,2.5206,2.5268,2.5325,2.5362,2.5422,2.5464,2.5533,2.5525,2.5553,2.56,2.5645,2.5697,2.564,2.5728,2.573,2.5707,2.5794,2.5794,2.587,2.5771,2.5773,2.5774,0,2.4962,2.5025,2.5137,2.521,2.5238,2.5292,2.5366,2.5423,2.5489,2.5513,2.5565,2.5586,2.5662,2.5638,2.5744,2.5704,2.5743,2.5771,2.5775,2.5783,2.5754,2.5802,2.5896,2.5906,2.5792,2.5791,2.579,0,2.4998,2.5111,2.5192,2.5225,2.5313,2.5351,2.5389,2.5453,2.5497,2.5562,2.5591,2.5665,2.5705,2.5762,2.5803,2.5782,2.5905,2.5885,2.5927,2.5925,2.595,2.5947,2.6049,2.5978,2.5977,2.5977,2.5977,0,2.508,2.5147,2.5209,2.5259,2.5336,2.5376,2.5451,2.5491,2.5548,2.5607,2.5631,2.5686,2.5738,2.58,2.5833,2.5915,2.5934,2.5955,2.5963,2.5952,2.5949,2.5976,2.5971,2.598,2.598,2.5979,2.5979,0,2.5131,2.5176,2.5266,2.5341,2.5362,2.5415,2.548,2.553,2.5568,2.5642,2.5662,2.5722,2.5797,2.5844,2.5939,2.5962,2.6051,2.6058,2.6028,2.6031,2.607,2.6065,2.6191,2.6209,2.6127,2.6128,2.6128,0,2.5179,2.5231,2.5312,2.5352,2.5391,2.5456,2.5501,2.5543,2.5589,2.5669,2.5709,2.5785,2.5848,2.5967,2.6019,2.6093,2.6101,2.614,2.6112,2.6099,2.61,2.6095,2.61,2.6144,2.6144,2.6145,2.6145,0,2.5259,2.5279,2.5341,2.5412,2.5464,2.5523,2.5581,2.5613,2.5666,2.5717,2.5793,2.5841,2.5938,2.6014,2.6092,2.6133,2.6148,2.6154,2.6167,2.6156,2.6135,2.6145,2.6038,2.615,2.615,2.615,2.6149,2.6149,2.531,2.5356,2.542,2.549,2.5538,2.5592,2.5642,2.5686,2.575,2.583,2.5853,2.5932,2.5998,2.6104,2.6147,2.6211,2.6205,2.6225,2.623,2.6233,2.6233,2.6127,2.6226,2.6225,2.6225,2.6225,2.6225,0,2.5389,2.5431,2.5495,2.5575,2.563,2.5639,2.5704,2.5749,2.5818,2.5878,2.5939,2.6026,2.61,2.6158,2.6234,2.6274,2.6283,2.6292,2.6289,2.6298,2.6234,2.6214,2.6283,2.6283,2.6283,2.6283,2.6283,2.6283,2.5437,2.5516,2.5544,2.5648,2.5691,2.5767,2.5803,2.5854,2.5901,2.5997,2.6058,2.6095,2.6155,2.6235,2.6303,2.6319,2.6345,2.6353,2.637,2.6309,2.6302,2.6296,2.6277,2.6359,2.6359,2.6428,2.6428,2.6429]},{"header":{"parameterUnit":"m.s-1","parameterCategory":1,"la1":30.2991,"la2":30.254,"lo1":-89.0895,"lo2":-89.0444,"dy":0.0017,"dx":0.0017,"nx":28,"ny":28,"refTime":"2025-07-20T21:00:00:Z","depth":0,"parameterNumber":3,"parameterNumberName":"V-component_of_WINDS"},"data":[0,0,0,0,0,0,0,0,0,0,0,0,0,0,0,0,0,0,0,0,0,0,0,0,0,0,0,0,0,0,0,0,0,0,0,0,0,0,0,0,0,0,0,0,0,0,0,0,0,0,0,0,0,0,0,0,0,0,4.4702,4.4703,0,4.4761,4.4762,4.4762,4.4738,4.4736,4.4735,4.4733,4.4786,4.4788,4.4791,0,0,0,0,0,0,0,0,0,0,0,0,0,4.456,4.4563,4.4702,4.4703,4.4704,4.4761,4.4762,4.4763,4.4738,4.4736,4.4734,4.4733,4.4785,4.4788,4.4791,0,0,0,0,0,0,0,0,0,0,0,0,0,4.462,4.4564,4.4702,4.4699,4.4699,4.4761,4.4762,4.4763,4.4738,4.4736,4.4734,4.4732,4.4784,4.4787,4.4791,4.4858,0,0,4.4804,4.4805,0,0,0,0,0,0,0,0,4.4617,4.4626,4.4698,4.4699,4.4699,4.474,4.4731,4.4794,4.4739,4.4723,4.4733,4.4731,4.4772,4.4776,4.4792,4.486,4.4863,4.4804,4.4807,4.4808,4.4809,0,0,0,0,0,0,0,4.4613,4.4623,4.4725,4.4699,4.47,4.4691,4.4697,4.4743,4.4758,4.4724,4.4723,4.473,4.4771,4.4788,4.4793,4.4863,4.4804,4.4808,4.481,4.4812,4.4988,4.4991,0,0,0,0,0,0,4.461,4.462,4.4723,4.4727,4.4652,4.4695,4.4702,4.4729,4.4757,4.476,4.4732,4.4729,4.4782,4.4788,4.4794,4.4874,4.4808,4.4812,4.4814,4.4986,4.4989,4.4991,0,0,0,0,0,0,4.4607,4.4619,4.4721,4.4673,4.4685,4.47,4.473,4.4731,4.4748,4.4764,4.4765,4.4747,4.4781,4.4789,4.4843,4.4875,4.4814,4.4817,4.4983,4.4987,4.499,4.5033,0,0,0,0,0,0,4.4603,4.4618,4.4646,4.4674,4.4688,4.4771,4.4732,4.4734,4.4756,4.4752,4.4778,4.478,4.478,4.4837,4.4847,4.488,4.4821,4.4981,4.4985,4.4989,4.5029,4.5038,4.5046,0,0,0,0,0,4.4598,4.4654,4.4647,4.466,4.4723,4.4773,4.4781,4.4782,4.4759,4.4785,4.4795,4.4779,4.487,4.4843,4.4854,4.4888,4.4978,4.4984,4.4989,4.5026,4.5036,4.5045,0,0,0,0,0,0,4.4626,4.4658,4.4651,4.4718,4.4744,4.4769,4.4802,4.4793,4.4823,4.4818,4.4816,4.4821,4.4877,4.4888,4.4857,4.4953,4.492,4.4928,4.4945,4.4955,4.4963,4.4959,4.4824,0,0,0,0,0,4.4641,4.4682,4.4706,4.4763,4.4776,4.4787,4.4809,4.4808,4.4832,4.4842,4.4856,4.4878,4.4912,4.4934,4.4966,4.5031,4.5035,4.506,4.5068,4.5074,4.5081,4.5115,4.5126,4.5008,4.5008,4.5008,0,0,4.4671,4.4693,4.4718,4.4769,4.4789,4.4828,4.4796,4.4839,4.4868,4.4848,4.49,4.4911,4.4936,4.4995,4.5022,4.5006,4.5114,4.5081,4.5086,4.5089,4.5121,4.5132,4.5142,4.5012,4.5011,4.501,0,0,4.4745,4.4767,4.4817,4.4838,4.4869,4.4876,4.4887,4.4914,4.4922,4.4975,4.4961,4.4993,4.5051,4.5069,4.5086,4.5168,4.5154,4.5178,4.522,4.5253,4.5262,4.5271,4.5299,4.5309,4.5184,4.5184,4.5184,0,4.4778,4.484,4.4843,4.4888,4.491,4.4896,4.4945,4.4964,4.5003,4.5017,4.4999,4.5072,4.5087,4.5151,4.5171,4.5185,4.5197,4.5175,4.5261,4.527,4.5277,4.5304,4.5315,4.5187,4.5186,4.5186,4.5186,0,4.4877,4.492,4.4956,4.4998,4.5023,4.507,4.5077,4.5103,4.5099,4.5107,4.516,4.5179,4.5214,4.5229,4.5224,4.5291,4.528,4.5262,4.5229,4.5291,4.5316,4.5327,4.5191,4.519,4.5189,4.5188,0,0,4.4971,4.5014,4.5027,4.5046,4.5079,4.511,4.5155,4.5193,4.5214,4.524,4.5276,4.5326,4.531,4.5329,4.5326,4.5356,4.5418,4.5333,4.5334,4.5348,4.5492,4.5505,4.5517,4.5409,4.5411,4.5413,4.5489,0,4.5048,4.5131,4.5135,4.5208,4.5247,4.5235,4.5273,4.5296,4.5305,4.5337,4.5344,4.538,4.5356,4.5367,4.5396,4.5405,4.5447,4.5399,4.5441,4.5442,4.5435,4.553,4.5545,4.5616,4.5499,4.5501,4.5502,0,4.5148,4.5182,4.526,4.5288,4.5304,4.534,4.5374,4.5405,4.543,4.5434,4.5456,4.5449,4.5492,4.5458,4.5517,4.5484,4.5501,4.5508,4.5511,4.5514,4.5476,4.5536,4.5639,4.565,4.5518,4.5517,4.5515,0,4.5208,4.5272,4.5327,4.5343,4.5377,4.5402,4.5417,4.544,4.5462,4.549,4.5504,4.5537,4.5554,4.5578,4.5579,4.5555,4.5638,4.5604,4.5641,4.5641,4.5658,4.5657,4.5765,4.567,4.567,4.567,4.567,0,4.5293,4.5341,4.5355,4.5389,4.5442,4.5445,4.5496,4.5508,4.5529,4.5563,4.5553,4.5584,4.5585,4.5616,4.5617,4.5665,4.5672,4.5675,4.5675,4.5676,4.5676,4.5687,4.5682,4.5673,4.5672,4.5672,4.5671,0,4.5369,4.538,4.544,4.5467,4.5475,4.5513,4.5535,4.5566,4.5574,4.5617,4.5627,4.5639,4.5675,4.5679,4.5721,4.5721,4.5779,4.5773,4.5772,4.577,4.5807,4.5803,4.5926,4.5941,4.5836,4.5837,4.5838,0,4.5422,4.546,4.5492,4.5516,4.5533,4.5571,4.5594,4.5597,4.5621,4.5653,4.5679,4.5715,4.5745,4.5803,4.5813,4.5845,4.5839,4.588,4.5844,4.5844,4.5839,4.5837,4.584,4.5887,4.5888,4.5889,4.5889,0,4.5515,4.5519,4.5555,4.5593,4.5621,4.565,4.5677,4.5696,4.5702,4.5729,4.5768,4.5791,4.5835,4.587,4.5901,4.5913,4.5902,4.5901,4.5911,4.5913,4.591,4.5912,4.579,4.5898,4.5897,4.5897,4.5896,4.5896,4.5581,4.5614,4.5642,4.5682,4.5703,4.5729,4.576,4.5772,4.5806,4.5844,4.5843,4.5885,4.5908,4.5949,4.5963,4.5995,4.5981,4.5995,4.5999,4.6003,4.6006,4.5906,4.6,4.6,4.6,4.5999,4.5999,0,4.5673,4.5691,4.5728,4.5768,4.5798,4.5788,4.5818,4.5843,4.5882,4.5905,4.5935,4.5979,4.6013,4.6026,4.6059,4.6082,4.6077,4.609,4.6088,4.6091,4.6017,4.6005,4.6093,4.6093,4.6093,4.6093,4.6093,4.6093,4.5725,4.578,4.5787,4.5851,4.5868,4.5912,4.593,4.5952,4.5971,4.6022,4.6052,4.6061,4.608,4.6114,4.6145,4.6147,4.616,4.6175,4.6175,4.6106,4.6096,4.6087,4.6076,4.6177,4.6178,4.6247,4.6247,4.6248]}]]